Bay City, TX

8:06 AM CDT on June 25, 2017 (GMT -0500)
Bay City

Weather History for KBYY - February, 2012

Change the Weather History Date:

Saturday, February 18, 2012

  Actual Average (KLBX) Record (KLBX)
Temperature  
Mean Temperature 64 °F -  
Max Temperature 68 °F 65 °F 84 °F (2017)
Min Temperature 59 °F 48 °F 28 °F (2015)
Degree Days  
Heating Degree Days 2    
Growing Degree Days 14 (Base 50)    
Moisture  
Dew Point 63 °F    
Average Humidity 98    
Maximum Humidity 100    
Minimum Humidity 80    
Precipitation  
Precipitation 0.83 in - - ()
Sea Level Pressure  
Sea Level Pressure 29.77 in    
Wind  
Wind Speed 12 mph (NNW)    
Max Wind Speed 18 mph    
Max Gust Speed 25 mph    
Visibility 8 miles    
Events Rain    
Averages and records for this station are not official NWS values.
T = Trace of Precipitation, MM = Missing Value Source: NWS Daily Summary

Daily Weather History Graph

Daily Weather History Graph

Search for Another Location

Airport or City:

Trip Planner

Search our weather history database for the weather conditions in past years. The results will help you decide how hot, cold, wet, or windy it might be!

Date:

Astronomy

Feb. 18, 2012 Rise Set
Actual Time 6:59 AM CST 6:15 PM CST
Civil Twilight 6:35 AM CST 6:39 PM CST
Nautical Twilight 6:08 AM CST 7:07 PM CST
Astronomical Twilight 5:40 AM CST 7:34 PM CST
Moon 4:28 AM CST (2/18) 3:23 PM CST (2/18)
Length of Visible Light 12h 03m
Length of Day
11h 15m
Waning Crescent, 11% of the Moon is Illuminated
Feb 18
Waning Crescent
Feb 21
New
Feb 29
First Quarter
Mar 8
Full
Mar 14
Last Quarter

Hourly Weather History & Observations

Time (CST) Temp. Dew Point Humidity Pressure Visibility Wind Dir Wind Speed Gust Speed Precip Events Conditions
12:15 AM 64.0 °F 64.0 °F 100% 29.86 in 1.2 mi East 13.8 mph 19.6 mph N/A   Overcast
12:35 AM 64.4 °F 64.4 °F 100% 29.85 in 3.0 mi East 12.7 mph - N/A   Overcast
12:55 AM 64.8 °F 64.8 °F 100% 29.84 in 7.0 mi East 12.7 mph - N/A   Overcast
1:15 AM 65.1 °F 65.1 °F 100% 29.83 in 7.0 mi East 12.7 mph 18.4 mph N/A   Overcast
1:35 AM 65.3 °F 65.3 °F 100% 29.82 in 7.0 mi East 10.4 mph - N/A   Overcast
1:55 AM 65.7 °F 65.7 °F 100% 29.81 in 10.0 mi ESE 10.4 mph - N/A   Overcast
2:15 AM 66.2 °F 66.2 °F 100% 29.80 in 10.0 mi ESE 13.8 mph 19.6 mph N/A   Overcast
2:35 AM 66.4 °F 66.2 °F 99% 29.78 in 10.0 mi ESE 17.3 mph 20.7 mph N/A Rain Light Rain
2:55 AM 66.4 °F 66.2 °F 99% 29.76 in 7.0 mi ESE 17.3 mph 21.9 mph N/A   Overcast
3:15 AM 66.4 °F 66.4 °F 100% 29.75 in 10.0 mi ESE 16.1 mph 20.7 mph N/A   Overcast
3:35 AM 66.6 °F 66.2 °F 99% 29.73 in 7.0 mi ESE 15.0 mph 19.6 mph N/A   Overcast
3:55 AM 66.9 °F 66.7 °F 99% 29.73 in 7.0 mi SE 11.5 mph 20.7 mph N/A   Overcast
4:15 AM 67.6 °F 67.5 °F 99% 29.73 in 10.0 mi SE 15.0 mph 21.9 mph N/A   Overcast
4:35 AM 67.8 °F 67.3 °F 98% 29.72 in 7.0 mi SE 15.0 mph 20.7 mph N/A   Overcast
4:55 AM 67.6 °F 67.3 °F 99% 29.72 in 7.0 mi SSE 16.1 mph 20.7 mph N/A   Overcast
5:15 AM 67.6 °F 67.6 °F 100% 29.72 in 3.0 mi SSE 16.1 mph 21.9 mph N/A   Overcast
5:35 AM 67.8 °F 67.8 °F 100% 29.72 in 5.0 mi SSE 13.8 mph - N/A   Overcast
5:55 AM 68.0 °F 68.0 °F 100% 29.73 in 7.0 mi South 13.8 mph - N/A Rain Light Rain
6:15 AM 67.8 °F 67.5 °F 99% 29.73 in 7.0 mi NW 10.4 mph 20.7 mph 0.01 in   Overcast
6:35 AM 65.3 °F 64.9 °F 99% 29.76 in 2.5 mi NW 13.8 mph - 0.14 in Rain Light Rain
6:55 AM 63.9 °F 63.9 °F 100% 29.74 in 7.0 mi NNW 9.2 mph - 0.17 in Rain Rain
7:15 AM 63.5 °F 63.5 °F 100% 29.74 in 10.0 mi North 8.1 mph - N/A Rain Light Rain
7:35 AM 63.5 °F 63.5 °F 100% 29.71 in 4.0 mi North 11.5 mph - 0.12 in Rain Heavy Rain
7:55 AM 63.1 °F 63.1 °F 100% 29.76 in 10.0 mi NNW 9.2 mph - 0.12 in Rain Light Rain
8:15 AM 62.6 °F 60.8 °F 94% 29.75 in 2.0 mi NNW 17.3 mph - 0.21 in Rain Heavy Rain
8:35 AM 61.9 °F 61.9 °F 100% 29.77 in 4.0 mi North 5.8 mph - 0.51 in Rain Heavy Rain
8:55 AM 61.7 °F 61.7 °F 100% 29.75 in 10.0 mi NNE 10.4 mph - 0.54 in Rain Light Rain
9:15 AM 61.9 °F 61.9 °F 100% 29.76 in 10.0 mi NE 8.1 mph - N/A   Overcast
9:35 AM 62.4 °F 62.4 °F 100% 29.76 in 10.0 mi NNE 6.9 mph - N/A   Overcast
9:55 AM 62.8 °F 62.8 °F 100% 29.75 in 10.0 mi North 10.4 mph - N/A   Overcast
10:15 AM 63.5 °F 63.3 °F 99% 29.76 in 10.0 mi NNE 6.9 mph - N/A   Overcast
10:35 AM 64.2 °F 63.7 °F 98% 29.76 in 10.0 mi NE 8.1 mph - N/A   Overcast
10:55 AM 64.4 °F 62.6 °F 94% 29.78 in 10.0 mi NNE 5.8 mph - N/A   Overcast
11:15 AM 65.1 °F 63.7 °F 95% 29.79 in 10.0 mi North 4.6 mph - N/A   Overcast
11:35 AM 64.8 °F 63.5 °F 96% 29.79 in 10.0 mi WNW 5.8 mph - N/A Rain Light Rain
11:55 AM 62.6 °F 62.6 °F 100% 29.79 in 10.0 mi WNW 9.2 mph - N/A   Overcast
12:15 PM 63.0 °F 62.2 °F 97% 29.78 in 10.0 mi NW 12.7 mph - N/A   Overcast
12:35 PM 61.3 °F 61.0 °F 99% 29.79 in 10.0 mi NW 11.5 mph - N/A   Overcast
12:55 PM 60.8 °F 60.4 °F 99% 29.79 in 5.0 mi NW 11.5 mph - N/A   Overcast
1:15 PM 60.3 °F 60.1 °F 99% 29.78 in 2.0 mi NW 9.2 mph - N/A   Overcast
1:35 PM 60.1 °F 60.1 °F 100% 29.79 in 1.8 mi NW 8.1 mph - N/A   Overcast
1:55 PM 59.9 °F 59.9 °F 100% 29.77 in 3.0 mi NW 6.9 mph - N/A   Overcast
2:15 PM 60.3 °F 60.3 °F 100% 29.75 in 4.0 mi NNW 4.6 mph - N/A   Overcast
2:35 PM 60.6 °F 60.4 °F 99% 29.77 in 7.0 mi West 9.2 mph - N/A   Overcast
2:55 PM 60.8 °F 60.3 °F 98% 29.76 in 10.0 mi WNW 8.1 mph - N/A   Overcast
3:15 PM 61.5 °F 60.8 °F 97% 29.77 in 10.0 mi West 10.4 mph - N/A   Overcast
3:35 PM 61.9 °F 60.4 °F 95% 29.78 in 10.0 mi West 10.4 mph - N/A   Overcast
3:55 PM 61.3 °F 60.4 °F 97% 29.78 in 4.0 mi West 8.1 mph - N/A   Overcast
4:15 PM 61.5 °F 60.6 °F 97% 29.77 in 10.0 mi West 9.2 mph - N/A   Overcast
4:35 PM 61.9 °F 60.3 °F 94% 29.78 in 10.0 mi West 6.9 mph - N/A   Overcast
4:55 PM 62.4 °F 60.4 °F 93% 29.78 in 10.0 mi West 11.5 mph - N/A   Overcast
5:15 PM 63.0 °F 59.2 °F 87% 29.79 in 10.0 mi West 9.2 mph - N/A   Overcast
5:35 PM 63.0 °F 59.0 °F 87% 29.80 in 10.0 mi West 8.1 mph - N/A   Overcast
5:55 PM 63.3 °F 58.3 °F 84% 29.80 in 10.0 mi West 18.4 mph 25.3 mph N/A   Scattered Clouds
6:15 PM 63.5 °F 57.2 °F 80% 29.81 in 10.0 mi West 16.1 mph 20.7 mph N/A   Mostly Cloudy
6:35 PM 60.8 °F 55.4 °F 82% 29.82 in 10.0 mi WNW 18.4 mph 24.2 mph N/A   Scattered Clouds
6:55 PM 61.5 °F 55.9 °F 82% 29.83 in 10.0 mi WNW 17.3 mph 27.6 mph N/A   Scattered Clouds
7:15 PM 60.8 °F 56.1 °F 85% 29.85 in 10.0 mi WNW 23.0 mph 28.8 mph N/A   Overcast
7:35 PM 59.9 °F 56.5 °F 88% 29.87 in 7.0 mi WNW 24.2 mph 28.8 mph N/A   Overcast
7:55 PM 58.8 °F 55.0 °F 87% 29.89 in 10.0 mi WNW 20.7 mph 26.5 mph N/A   Overcast
8:15 PM 58.1 °F 53.6 °F 85% 29.90 in 10.0 mi WNW 19.6 mph 25.3 mph N/A   Overcast
8:35 PM 57.4 °F 53.2 °F 86% 29.92 in 10.0 mi NW 16.1 mph 21.9 mph N/A   Mostly Cloudy
8:55 PM 57.2 °F 53.4 °F 87% 29.94 in 10.0 mi NW 17.3 mph 23.0 mph N/A   Mostly Cloudy
9:15 PM 57.2 °F 52.9 °F 85% 29.94 in 10.0 mi NW 17.3 mph 27.6 mph N/A   Overcast
9:35 PM 56.8 °F 51.3 °F 82% 29.95 in 10.0 mi NW 19.6 mph 27.6 mph N/A   Scattered Clouds
9:55 PM 56.1 °F 50.0 °F 80% 29.96 in 10.0 mi NW 18.4 mph 23.0 mph N/A   Mostly Cloudy
10:15 PM 56.1 °F 50.0 °F 80% 29.96 in 10.0 mi NW 16.1 mph 25.3 mph N/A   Mostly Cloudy
10:35 PM 55.4 °F 49.6 °F 81% 29.96 in 10.0 mi NW 16.1 mph 26.5 mph N/A   Scattered Clouds
10:55 PM 54.5 °F 48.7 °F 81% 29.97 in 10.0 mi NW 12.7 mph 21.9 mph N/A   Clear
11:15 PM 54.0 °F 48.7 °F 82% 29.98 in 10.0 mi NW 18.4 mph 23.0 mph N/A   Clear
11:35 PM 53.6 °F 48.9 °F 84% 29.98 in 10.0 mi NW 13.8 mph 21.9 mph N/A   Clear
11:55 PM 53.2 °F 48.9 °F 85% 29.98 in 10.0 mi NW 12.7 mph - N/A   Clear